Nasa Shuttle, FL

11:18 PM EDT on March 26, 2017 (GMT -0400)
Nasa Shuttle

Weather History for KTTS - March, 2013

Change the Weather History Date:

Friday, March 22, 2013

  Actual Average Record
Temperature  
Mean Temperature 70 °F -  
Max Temperature 75 °F 73 °F 87 °F (2017)
Min Temperature 64 °F 56 °F 43 °F (2016)
Cooling Degree Days 4    
Growing Degree Days 20 (Base 50)    
Moisture  
Dew Point 56 °F    
Average Humidity 68    
Maximum Humidity 94    
Minimum Humidity 37    
Precipitation  
Precipitation 0.04 in - - ()
Sea Level Pressure  
Sea Level Pressure 29.99 in    
Wind  
Wind Speed 7 mph (SE)    
Max Wind Speed 14 mph    
Max Gust Speed 17 mph    
Visibility 10 miles    
Events Rain    
Averages and records for this station are not official NWS values.
T = Trace of Precipitation, MM = Missing Value Source: NWS Daily Summary

Daily Weather History Graph

Daily Weather History Graph

Search for Another Location

Airport or City:

Trip Planner

Search our weather history database for the weather conditions in past years. The results will help you decide how hot, cold, wet, or windy it might be!

Date:

Astronomy

Mar. 22, 2013 Rise Set
Actual Time 7:24 AM EDT 7:35 PM EDT
Civil Twilight 7:00 AM EDT 7:59 PM EDT
Nautical Twilight 6:33 AM EDT 8:26 PM EDT
Astronomical Twilight 6:05 AM EDT 8:54 PM EDT
Moon 3:20 PM EDT (3/22) 4:03 AM EDT (3/22)
Length of Visible Light 12h 58m
Length of Day
12h 11m
Waxing Gibbous, 77% of the Moon is Illuminated
Mar 22
Waxing Gibbous
Mar 27
Full
Apr 3
Last Quarter
Apr 10
New
Apr 18
First Quarter

Hourly Weather History & Observations

Time (EDT) Temp. Dew Point Humidity Pressure Visibility Wind Dir Wind Speed Gust Speed Precip Events Conditions
11:58 AM 70.7 °F 43.7 °F 38% 30.03 in 10.0 mi Variable 4.6 mph - N/A   Partly Cloudy
12:58 PM 73.6 °F 45.5 °F 37% 30.01 in 10.0 mi Variable 5.8 mph - N/A   Partly Cloudy
1:58 PM 73.6 °F 48.4 °F 41% 29.99 in 10.0 mi ESE 9.2 mph - N/A   Partly Cloudy
2:58 PM 74.3 °F 48.9 °F 41% 29.97 in 10.0 mi SE 10.4 mph 17.3 mph N/A   Clear
3:58 PM 75.0 °F 50.4 °F 42% 29.94 in 10.0 mi East 12.7 mph - N/A   Clear
4:58 PM 73.6 °F 51.4 °F 46% 29.93 in 10.0 mi East 13.8 mph 17.3 mph N/A   Clear
5:58 PM 71.6 °F 51.4 °F 49% 29.95 in 10.0 mi ESE 8.1 mph - N/A   Clear
6:28 PM 69.8 °F 51.8 °F 53% 29.96 in 9.0 mi SE 4.6 mph - N/A   Light Drizzle
6:57 PM 66.2 °F 57.2 °F 73% 29.97 in 10.0 mi SE 5.8 mph - N/A   Mostly Cloudy
6:58 PM 66.6 °F 56.7 °F 70% 29.97 in 10.0 mi SE 5.8 mph - 0.00 in   Mostly Cloudy
7:50 PM 66.2 °F 57.2 °F 73% 29.98 in 10.0 mi SE 3.5 mph - N/A Rain Light Rain
7:58 PM 65.8 °F 57.7 °F 75% 29.98 in 10.0 mi SSE 4.6 mph - 0.00 in Rain Light Rain
8:26 PM 64.4 °F 60.8 °F 88% 29.99 in 10.0 mi SE 3.5 mph - N/A   Mostly Cloudy
8:58 PM 64.6 °F 63.0 °F 94% 30.00 in 10.0 mi SSE 4.6 mph - 0.04 in   Overcast
9:58 PM 64.2 °F 62.2 °F 93% 30.01 in 10.0 mi SSE 5.8 mph - N/A   Overcast
10:07 PM 64.4 °F 62.6 °F 94% 30.01 in 10.0 mi SE 4.6 mph - N/A Rain Light Rain
10:29 PM 64.4 °F 62.6 °F 94% 30.01 in 10.0 mi ESE 3.5 mph - N/A   Overcast
10:58 PM 64.6 °F 62.8 °F 94% 30.01 in 10.0 mi SE 5.8 mph - 0.00 in   Overcast
11:58 PM 64.9 °F 63.0 °F 93% 30.01 in 10.0 mi SE 3.5 mph - N/A   Overcast